Regional Weather Roundup
Issued by NWS State College, PA

Home | Current Version | Previous Version | Text Only | Print | Product List | Glossary On
Versions: 1 2 3 4 5 6 7 8 9 10 11 12 13 14 15 16 17 18 19 20 21 22 23 24 25 26 27 28 29 30 31 32 33 34 35 36 37 38 39 40 41 42 43 44 45 46 47 48 49 50
000
ASUS41 KCTP 072210
RWRCTP

REGIONAL WEATHER ROUNDUP
NATIONAL WEATHER SERVICE STATE COLLEGE PA
600 PM EDT TUE JUL 07 2015

Note: "fair" indicates few or no clouds below 12,000 feet with no
significant weather and/or obstructions to visibility.

* = STATION THAT DOES NOT REPORT PRECIPITATION /E.G. RAIN...SNOW...ETC/
    THUNDER OR FOG.

PAZ002>004-007>009-013>016-020>023-029>032-072300-
WESTERN PENNSYLVANIA

CITY           SKY/WX    TMP DP  RH WIND       PRES   REMARKS
ERIE           CLOUDY    73  67  81 SW10G18   29.90R
MEADVILLE      LGT RAIN  76  66  71 NW8       29.91F
FRANKLIN*      CLOUDY    75  70  83 S9        29.94F
NEW CASTLE     FAIR      83  72  69 CALM      29.92S
BEAVER COUNTY  MOSUNNY   81  68  65 SW9G17    29.94R
BUTLER*        PTSUNNY   81  72  74 S8        29.95F
PITTSBURGH INT CLOUDY    83  70  64 S10G20    29.94S
PITTSBURGH     PTSUNNY   82  67  60 S18G24    29.95F
INDIANA*       MOSUNNY   79  70  73 SW8G15    30.00F
LATROBE        PTSUNNY   77  72  83 W9        29.98F
WASHINGTON CO* NOT AVBL
$$

PAZ004>006-010>012-017>019-024>028-033>037-041-042-045-046-049>053-072300-
CENTRAL PENNSYLVANIA

CITY           SKY/WX    TMP DP  RH WIND       PRES   REMARKS
BRADFORD       RAIN      68  64  87 VRB5      29.98S FOG
DUBOIS         HVY RAIN  74  69  85 S15G32    29.97S
CLEARFIELD     PTSUNNY   80  65  59 S8        29.97F
JOHNSTOWN      PTSUNNY   78  65  63 SW8       30.02F
ALTOONA        MOSUNNY   82  65  56 S7        29.99F
STATE COLLEGE  MOSUNNY   84  68  58 S12       29.96F
WILLIAMSPORT   SUNNY     85  69  58 S9        29.91F
SELINSGROVE    SUNNY     84  70  62 S8G16     29.94F
FT INDIANTOWN  SUNNY     85  69  58 SW9       29.96F
CAPITAL CITY   SUNNY     85  68  56 SW8       29.95F
HARRISBURG     MOSUNNY   86  67  52 S6        29.95F
YORK           SUNNY     85  68  56 SW9       29.97F
$$

PAZ038>040-043-044-047-048-054-055-060>062-067>071-072300-
EASTERN PENNSYLVANIA

CITY           SKY/WX    TMP DP  RH WIND       PRES   REMARKS
SCRANTON       SUNNY     84  65  52 SW14      29.95F
MOUNT POCONO   MOSUNNY   77  66  68 SW10      30.02F
ALLENTOWN      MOSUNNY   84  69  60 SW15      29.95F
QUAKERTOWN*    CLEAR     84  72  65 W8        29.98F
READING        SUNNY     85  66  53 W10       29.95F
LANCASTER      SUNNY     84  67  56 SW13      29.97S
COATESVILLE    CLEAR     82  72  69 SW3       30.00F
POTTSTOWN      MOSUNNY   83  72  69 SW7       29.98F
BLUE BELL      MOSUNNY   86  72  62 SW13      29.96F
DOYLESTOWN     MOSUNNY   84  70  62 W8        29.96S
WILLOW GROVE   NOT AVBL
NORTH PHILA    PTSUNNY   89  66  46 SW10      29.97S
PHILADELPHIA   MOSUNNY   89  67  47 SW14      29.96S
$$



USA.gov is the U.S. government's official web portal to all federal, state and local government web resources and services.